Weather History for Melilla, Spain

Change the Weather History Date:

Saturday, March 9, 2013

  Actual Average Record
Temperature  
Mean Temperature 65 °F -  
Max Temperature 75 °F 67 °F 75 °F (2013)
Min Temperature 55 °F 55 °F 48 °F (2005)
Growing Degree Days 15 (Base 50)    
Moisture  
Dew Point 50 °F    
Average Humidity 58    
Maximum Humidity 77    
Minimum Humidity 23    
Precipitation  
Precipitation 0.00 in 0.05 in - ()
Sea Level Pressure  
Sea Level Pressure 29.89 in    
Wind  
Wind Speed 5 mph ()    
Max Wind Speed 16 mph    
Max Gust Speed -    
Visibility 6.8 miles    
Events      
Averages and records for this station are not official NWS values.
T = Trace of Precipitation, MM = Missing Value Source: Averaged Metar Reports

Daily Weather History Graph

Daily Weather History Graph

Search for Another Location

Airport:

Trip Planner

Search our weather history database for the weather conditions in past years. The results will help you decide how hot, cold, wet, or windy it might be!

Date:

Astronomy

Mar. 09, 2013 Rise Set
Actual Time 7:30 AM CET 7:14 PM CET
Civil Twilight 7:05 AM CET 7:39 PM CET
Nautical Twilight 6:36 AM CET 8:09 PM CET
Astronomical Twilight 6:06 AM CET 8:38 PM CET
Moon 5:41 AM CET (3/9) 5:03 PM CET (3/9)
Length of Visible Light 12h 34m
Length of Day
11h 43m
Waning Crescent, 7% of the Moon is Illuminated
Mar 9
Waning Crescent
Mar 11
New
Mar 19
First Quarter
Mar 27
Full
Apr 3
Last Quarter

Hourly Weather History & Observations

Time (CET) Temp. Dew Point Humidity Pressure Visibility Wind Dir Wind Speed Gust Speed Precip Events Conditions
6:00 AM 59.0 °F 51.8 °F 77% 29.89 in 6.2 mi Calm Calm - N/A   Partly Cloudy
6:30 AM 57.2 °F 48.2 °F 72% 29.89 in 6.2 mi Calm Calm - N/A   Partly Cloudy
7:00 AM 56 °F 49 °F 69% 29.89 in 19 mi Calm Calm - -   Scattered Clouds
7:00 AM 55.4 °F 48.2 °F 77% 29.89 in 6.2 mi Calm Calm - N/A   Partly Cloudy
7:30 AM 55.4 °F 48.2 °F 77% 29.89 in 6.2 mi NW 8.1 mph - N/A   Partly Cloudy
8:00 AM 57.2 °F 46.4 °F 67% 29.89 in - NNW 3.5 mph - N/A   Clear
8:30 AM 60.8 °F 50.0 °F 68% 29.89 in - Calm Calm - N/A   Clear
9:00 AM 68.0 °F 48.2 °F 49% 29.89 in - SSW 9.2 mph - N/A   Clear
9:30 AM 68.0 °F 46.4 °F 46% 29.92 in - SSW 9.2 mph - N/A   Clear
10:00 AM 69.8 °F 46.4 °F 43% 29.92 in - SSW 12.7 mph - N/A   Clear
10:30 AM 69.8 °F 46.4 °F 43% 29.92 in - SSW 11.5 mph - N/A   Clear
11:00 AM 71.6 °F 46.4 °F 41% 29.92 in - SSW 10.4 mph - N/A   Clear
11:30 AM 73.4 °F 46.4 °F 38% 29.92 in - SW 9.2 mph - N/A   Clear
12:00 PM 73.4 °F 46.4 °F 38% 29.92 in 6.2 mi SSW 8.1 mph - N/A   Partly Cloudy
12:30 PM 75.2 °F 42.8 °F 31% 29.89 in 6.2 mi SSW 8.1 mph - N/A   Partly Cloudy
1:00 PM 75 °F 44 °F 23% 29.89 in 25 mi SW 8.1 mph - -   Scattered Clouds
1:00 PM 75.2 °F 44.6 °F 34% 29.89 in 6.2 mi SW 9.2 mph - N/A   Partly Cloudy
1:30 PM 75.2 °F 46.4 °F 36% 29.89 in 6.2 mi WSW 4.6 mph - N/A   Partly Cloudy
2:00 PM 75.2 °F 48.2 °F 38% 29.89 in 6.2 mi NW 9.2 mph - N/A   Partly Cloudy
2:30 PM 69.8 °F 53.6 °F 56% 29.89 in 6.2 mi North 9.2 mph - N/A   Partly Cloudy
3:00 PM 71.6 °F 53.6 °F 53% 29.86 in 6.2 mi NW 5.8 mph - N/A   Partly Cloudy
3:30 PM 69.8 °F 53.6 °F 56% 29.86 in 6.2 mi WNW 5.8 mph - N/A   Partly Cloudy
4:00 PM 64.4 °F 55.4 °F 73% 29.86 in 6.2 mi WNW 16.1 mph - N/A   Partly Cloudy
4:30 PM 62.6 °F 55.4 °F 77% 29.89 in 6.2 mi West 13.8 mph - N/A   Partly Cloudy
5:00 PM 62.6 °F 55.4 °F 77% 29.89 in 6.2 mi West 10.4 mph - N/A   Partly Cloudy
5:30 PM 62.6 °F 55.4 °F 77% 29.89 in 6.2 mi West 10.4 mph - N/A   Partly Cloudy
6:00 PM 62.6 °F 55.4 °F 77% 29.89 in 6.2 mi West 10.4 mph - N/A   Partly Cloudy
6:30 PM 62.6 °F 53.6 °F 72% 29.89 in 6.2 mi West 9.2 mph - N/A   Partly Cloudy
7:00 PM 62 °F 53 °F 65% 29.89 in 25 mi WSW 9.2 mph - -   Overcast
7:00 PM 62.6 °F 53.6 °F 72% 29.89 in 6.2 mi WSW 9.2 mph - N/A   Partly Cloudy
7:30 PM 62.6 °F 53.6 °F 72% 29.89 in 6.2 mi WSW 8.1 mph - N/A   Partly Cloudy